Regional Weather Roundup
Issued by NWS

Home | Current Version | Previous Version | Graphics & Text | Print | Product List | Glossary On
Versions: 1 2 3 4 5 6 7 8 9 10 11 12 13 14 15 16 17 18 19 20 21 22 23 24 25 26 27 28 29 30 31 32 33 34 35 36 37 38 39 40 41 42 43 44 45 46 47 48 49 50
000
ASUS43 KLOT 021622
RWRIL

ILLINOIS REGIONAL WEATHER ROUNDUP
NATIONAL WEATHER SERVICE CHICAGO/ROMEOVILLE IL
1100 AM CDT TUE JUN 02 2015

NOTE: "FAIR" INDICATES FEW OR NO CLOUDS BELOW 12,000 FEET WITH NO
SIGNIFICANT WEATHER AND/OR OBSTRUCTIONS TO VISIBILITY.

* THESE STATIONS ARE NOT UNDER NWS QUALITY CONTROL. THEY ALSO MAY NOT
  REPORT WEATHER SUCH AS PRECIPITATION OR FOG.

ILZ001-002-007-009-015-016-024-021700-
NORTHWEST ILLINOIS

CITY           SKY/WX    TMP DP  RH WIND       PRES   REMARKS
MOLINE         MOSUNNY   67  51  56 E7        30.13F
STERLING*      MOSUNNY   66  48  52 SE3       30.15F
SAVANNA*       SUNNY     65  47  53 W5        30.15F
$$

ILZ003-004-008-010-011-017-018-021700-
NORTH CENTRAL ILLINOIS

CITY           SKY/WX    TMP DP  RH WIND       PRES   REMARKS
ROCKFORD       MOSUNNY   66  46  48 VRB6      30.18F
FREEPORT*      SUNNY     63  42  45 CALM      30.18F
ROCHELLE*      SUNNY     65  47  52 SE7       30.17F
DE KALB*       SUNNY     62  46  55 SE6       30.18F
PERU*          SUNNY     65  48  53 SE7       30.17F
$$

ILZ005-006-012>014-019>023-021700-
NORTHEAST ILLINOIS

CITY           SKY/WX    TMP DP  RH WIND       PRES   REMARKS
CHICAGO-OHARE  MOSUNNY   65  45  48 CALM      30.17F
CHICAGO-MIDWAY MOSUNNY   67  46  47 VRB5      30.18F
AURORA         PTSUNNY   65  46  50 CALM      30.18F
LANSING*       MOSUNNY   64  45  48 E5        30.18F
JOLIET*        MOSUNNY   66  50  56 S6        30.18F
WAUKEGAN       SUNNY     60  47  61 NE7       30.18F
DUPAGE AIRPORT SUNNY     65  45  48 CALM      30.17F
KANKAKEE*      SUNNY     64  49  59 NE3       30.18F
WHEELING       SUNNY     65  45  48 VRB5      30.19F
MORRIS*        MOSUNNY   65  46  49 SE6       30.16S
ROMEOVILLE*    PTSUNNY   64  46  51 SE5       30.18S
NORTHERLY ISL    N/A     53  47  79 NE5         N/A
$$

LMZ740>746-021700-
SOUTHERN LAKE MICHIGAN

STATION/POSITION SKY/WX   TEMP    WIND        PRES    VSBY  WAVE
                          AIR SEA DIR/SP/G                  HT/PER
                          (F)     (DEG/KT/KT) (MB)    (MI)  (FT/S)
SOUTHERN BUOY              42 39  120/  6/  8 1023.5F         1
HARRISON CRIB              50      80/  6/  7   N/A
BURNHAM HARBOR             53      60/  5/  6   N/A
CALUMET HARBOR             54      40/  5/  7   N/A
BURNS HARBOR                      360/  6/  7 1023.4F
MICHIGAN CITY              57     340/  9/ 10   N/A
MICHIGAN CITY 6N           53 56  360/  8/  8   N/A           1/ 4
ST. JOSEPH                 54 56  340/  8/  8   N/A           1
$$

ILZ025>027-034>036-040-047-049-050-058-095>099-021700-
WEST-CENTRAL ILLINOIS

CITY           SKY/WX    TMP DP  RH WIND       PRES   REMARKS
QUINCY         PTSUNNY   66  51  58 SE6       30.13F
GALESBURG*     MOSUNNY   66  54  64 E7        30.14F
MACOMB*        PTSUNNY   65  54  69 E7        30.17F
JACKSONVILLE*  SUNNY     68  54  60 NE9       30.14F
PITTSFIELD*    PTSUNNY   67  54  61 E7        30.15S
$$

ILZ028>032-037-038-041>044-048-051>054-059>061-021700-
CENTRAL ILLINOIS

CITY           SKY/WX    TMP DP  RH WIND       PRES   REMARKS
PONTIAC        SUNNY     65  49  57 SE7       30.18F
BLOOMINGTON    SUNNY     66  48  52 E12       30.18F
DECATUR        MOSUNNY   65  53  65 E12       30.16F
PEORIA         MOSUNNY   68  50  52 NE5       30.16F
LACON*         SUNNY     65  49  55 SE7       30.16F
LINCOLN*       SUNNY     67  48  50 E8        30.14F
SPRINGFIELD    SUNNY     68  52  56 NE13      30.15F
TAYLORVILLE    SUNNY     64  52  63 NE8       30.14F
$$

ILZ033-039-045-046-055>057-062-063-021700-
EAST-CENTRAL ILLINOIS

CITY           SKY/WX    TMP DP  RH WIND       PRES   REMARKS
CHAMPAIGN      SUNNY     65  51  60 NE15G22   30.15F
DANVILLE*      MOSUNNY   62  52  68 E8        30.15S
RANTOUL*       SUNNY     65  50  57 E12       30.16F
MATTOON        MOSUNNY   62  52  69 NE12      30.14F
PARIS*         SUNNY     64  54  68 NE12      30.16F
$$

ILZ079-100>102-021700-
SOUTHWEST ILLINOIS

CITY           SKY/WX    TMP DP  RH WIND       PRES   REMARKS
ALTON          PTSUNNY   66  59  77 VRB6      30.14F
BELLEVILLE     PTSUNNY   64  57  76 E5        30.13S
CAHOKIA*       CLOUDY    67  54  63 E7        30.13F
SPARTA*        CLOUDY    61  55  79 CALM      30.14S
$$

ILZ064>066-069>071-074>076-080>082-084>086-088>090-092>094-021700-
SOUTH-CENTRAL ILLINOIS

CITY           SKY/WX    TMP DP  RH WIND       PRES   REMARKS
CARBONDALE     CLOUDY    62  54  74 N7        30.13R
CAIRO*         CLOUDY    62  56  81 NE3       30.12F
EFFINGHAM*     CLOUDY    60  50  70 CALM      30.16F
MARION         CLOUDY    63  57  82 MISG      30.13F
MT. VERNON     CLOUDY    61  52  72 NE6       30.14F
CENTRALIA*     CLOUDY    63  53  67 E7        30.14S
SALEM*         CLOUDY    61  54  77 E5        30.14F
$$

ILZ067-068-072-073-078-083-087-091-021700-
SOUTHEAST ILLINOIS

CITY           SKY/WX    TMP DP  RH WIND       PRES   REMARKS
LAWRENCEVILLE  CLOUDY    59  52  77 NE7       30.15F
FLORA*         SUNNY     59  52  78 N3        30.15S
FAIRFIELD*     CLOUDY    59  55  84 N3        30.13S
HARRISBURG*    CLOUDY    61  57  85 NE5       30.14F
ROBINSON*      CLOUDY    59  53  78 NE7       30.16S
CARMI*         CLOUDY    63  52  67 NE6       30.13F
$$

ABBREVIATIONS USED IN REMARKS
   TC - TEMPERATURE IN CELSIUS
  WCI - WIND CHILL INDEX
   HX - HEAT INDEX
  VSB - VISIBILITY
$$




USA.gov is the U.S. government's official web portal to all federal, state and local government web resources and services.